User: anonymous   Login
Location: Champseau
(45.8333°N, 1.7667°E)
Time: 03:50:09
(UTC+00:00)
Language:

AAUSAT CUBESAT 2 - Orbit

View from above orbital plane
View from above orbital plane
View from above satellite
View from above satellite

Ground track
Ground track

The orbit data is extracted from the following two-line orbital elements,

1 32788U 08021F   21332.92357359  .00001820  00000-0  16705-3 0  9996
2 32788  97.5178 320.8289 0013298  79.0795 281.1922 14.95975061738447
Epoch (UTC): 28 November 2021 22:09:56
Eccentricity: 0.0013298
inclination: 97.5178°
perigee height: 570 km
apogee height: 588 km
right ascension of ascending node: 320.8289°
argument of perigee: 79.0795°
revolutions per day: 14.95975061
mean anomaly at epoch: 281.1922°
orbit number at epoch: 73844

The dashed part of the orbit path shows where the satellite is in the earth's shadow,  

DLR